Regional Weather Roundup
Issued by NWS

Home | Current Version | Previous Version | Graphics & Text | Print | Product List | Glossary On
Versions: 1 2 3 4 5 6 7 8 9 10 11 12 13 14 15 16 17 18 19 20 21 22 23 24 25 26 27 28 29 30 31 32 33 34 35 36 37 38 39 40 41 42 43 44 45 46 47 48 49 50
000
ASUS43 KIND 200009
RWRIN

WEATHER ROUNDUP FOR INDIANA
NATIONAL WEATHER SERVICE INDIANAPOLIS IN
800 PM EDT FRI SEP 19 2014

NOTE: "FAIR" INDICATES FEW OR NO CLOUDS BELOW 12,000 FEET WITH NO
SIGNIFICANT WEATHER AND/OR OBSTRUCTIONS TO VISIBILITY.

* - STATION DOES NOT REPORT WEATHER SUCH AS PRECIPITATION OR FOG.

+ - STATION NOT QUALITY CONTROLLED BY THE NATIONAL WEATHER SERVICE.
    USE DATA WITH CAUTION...ESPECIALLY DEWPOINT AND RELATIVE
    HUMIDITY OBSERVATIONS.

INZ001>003-010>013-019-020-200100-
NORTHWEST INDIANA

CITY           SKY/WX    TMP DP  RH WIND       PRES   REMARKS
GARY /AIRPORT/ PTCLDY    68  46  45 S6        30.02F
KNOX *+        CLEAR     62  49  63 S5        30.03F
LA PORTE +     CLEAR     64  46  51 CALM      30.04S
6HR MIN TEMP:  64; 6HR MAX TEMP:  71;

MICHIGAN CITY+ CLEAR     63  45  51 S3        30.03F
MONTICELLO +   CLEAR     63  51  64 E3        30.05S
RENSSELAER +   PTCLDY    63  50  63 SE6       30.04F
VALPARAISO     CLEAR     65  46  50 S6        30.04F
6HR MIN TEMP:  65; 6HR MAX TEMP:  74;


$$

LMZ046-743>745-200100-
SOUTHERN LAKE MICHIGAN

STATION/POSITION TIME  TEMP WIND        PRES
                       AIR  DIR/SP/G
                 (UTC) (F)  (DEG/KT/KT) (MB)
MICHIGAN CITY    0000   69  140/  8/ 11   N/A

$$

INZ004-005-014>016-021>024-200100-
NORTH CENTRAL INDIANA

CITY           SKY/WX    TMP DP  RH WIND       PRES   REMARKS
ELKHART        CLEAR     64  46  52 S3        30.06F
GOSHEN         CLEAR     63  49  60 SE5       30.06S
6HR MIN TEMP:  63; 6HR MAX TEMP:  72;

LOGANSPORT +   CLEAR     59  46  63 S5        30.07S
PERU/GRISSOM   CLEAR     63  51  64 SE6       30.06S
6HR MIN TEMP:  63; 6HR MAX TEMP:  73;

ROCHESTER +    CLEAR     66  52  59 S3        30.07S
SOUTH BEND     CLEAR     65  48  54 S7        30.05F
6HR MIN TEMP:  65; 6HR MAX TEMP:  73;

WARSAW +       CLEAR     61  50  67 CALM      30.06F

$$

INZ006>009-017-018-025>027-200100-
NORTHEAST INDIANA

CITY           SKY/WX    TMP DP  RH WIND       PRES   REMARKS
ANGOLA *+      CLEAR     61  48  63 S5        30.07F
AUBURN +       PTCLDY    59  48  67 E3        30.08F
FORT WAYNE     MOCLDY    62  49  62 SE6       30.08F
6HR MIN TEMP:  62; 6HR MAX TEMP:  70;

HUNTINGTON +   CLEAR     58  52  80 SE3       30.06F
6HR MIN TEMP:  58; 6HR MAX TEMP:  70;


$$

INZ028-029-035-036-043>045-051>053-200100-
WEST CENTRAL INDIANA

CITY           SKY/WX    TMP DP  RH WIND       PRES   REMARKS
GREENCASTLE +  CLEAR     61  55  82 CALM      30.07F
LAFAYETTE      CLEAR     66  49  54 CALM      30.05S
6HR MIN TEMP:  66; 6HR MAX TEMP:  73;

TERRE HAUTE    CLEAR     66  53  63 SE5       30.05F
6HR MIN TEMP:  66; 6HR MAX TEMP:  75;


$$

INZ030>032-037>040-046>048-054>057-064-065-200100-
CENTRAL INDIANA

CITY           SKY/WX    TMP DP  RH WIND       PRES   REMARKS
CP ATTERBURY + CLEAR     61  55  82 CALM      30.08S
FRANKFORT +    CLEAR     61  53  74 SE5       30.08S
INDIANAPOLIS   PTCLDY    66  49  54 S6        30.07R
6HR MIN TEMP:  66; 6HR MAX TEMP:  73;

-EAGLE CREEK   CLEAR     67  47  48 CALM      30.06S
6HR MIN TEMP:  67; 6HR MAX TEMP:  73;

KOKOMO *+      CLEAR     61  48  63 SE5       30.07S
MARION +       CLEAR     60  49  68 CALM      30.08F
MT COMFORT *+  CLEAR     64  43  45 SE3       30.08S
SHELBYVILLE    CLEAR     66  49  54 SE5       30.07S
6HR MIN TEMP:  66; 6HR MAX TEMP:  77;

ZIONSVILLE +   CLEAR     61  51  69 CALM      30.08S
6HR MIN TEMP:  61; 6HR MAX TEMP:  73;


$$

INZ033-034-041-042-049-050-058-059-200100-
EAST CENTRAL INDIANA

CITY           SKY/WX    TMP DP  RH WIND       PRES   REMARKS
MUNCIE         CLEAR     62  50  64 SE3       30.08S
6HR MIN TEMP:  61; 6HR MAX TEMP:  73;


$$

INZ060-061-067>069-081>083-085>088-200100-
SOUTHWEST INDIANA

CITY           SKY/WX    TMP DP  RH WIND       PRES   REMARKS
EVANSVILLE     CLEAR     72  58  61 N3        30.03S
6HR MIN TEMP:  72; 6HR MAX TEMP:  79;

WASHINGTON +   CLEAR     63  58  83 CALM      30.04F
6HR MIN TEMP:  63; 6HR MAX TEMP:  77;


$$

INZ062-063-066-070>080-084-089>092-200100-
SOUTH CENTRAL AND SOUTHEAST INDIANA

CITY           SKY/WX    TMP DP  RH WIND       PRES   REMARKS
BLOOMINGTON    CLEAR     60  56  86 CALM      30.07S
6HR MIN TEMP:  60; 6HR MAX TEMP:  74;

SEYMOUR +      CLEAR     66  55  68 E3        30.07

$$




USA.gov is the U.S. government's official web portal to all federal, state and local government web resources and services.